Edwards AFB North Base, CA

4:26 PM PST on November 11, 2019 (GMT -0800)
Edwards AFB North Base

Weather History for K9L2 - September, 2019

Change the Weather History Date:

Wednesday, September 11, 2019

  Actual Average (KEDW) Record (KEDW)
Temperature  
Mean Temperature 70 °F -  
Max Temperature 87 °F 91 °F 102 °F (2015)
Min Temperature 52 °F 57 °F 50 °F (2000)
Cooling Degree Days 4    
Growing Degree Days 20 (Base 50)    
Moisture  
Dew Point 35 °F    
Average Humidity 31    
Maximum Humidity 61    
Minimum Humidity 9    
Precipitation  
Precipitation 0.00 in - - ()
Sea Level Pressure  
Sea Level Pressure 29.93 in    
Wind  
Wind Speed 6 mph ()    
Max Wind Speed 15 mph    
Max Gust Speed -    
Visibility 8.1 miles    
Events      
Averages and records for this station are not official NWS values.
T = Trace of Precipitation, MM = Missing Value Source: Averaged Metar Reports

Daily Weather History Graph

Daily Weather History Graph

Search for Another Location

Airport or City:

Astronomy

Sep. 11, 2019 Rise Set
Actual Time 6:31 AM PDT 7:04 PM PDT
Civil Twilight 6:05 AM PDT 7:29 PM PDT
Nautical Twilight 5:35 AM PDT 7:59 PM PDT
Astronomical Twilight 5:05 AM PDT 8:30 PM PDT
Moon 6:12 PM PDT (9/11) 4:06 AM PDT (9/11)
Length of Visible Light 13h 23m
Length of Day
12h 32m
Waxing Gibbous, 95% of the Moon is Illuminated
Sep 11
Waxing Gibbous
Sep 13
Full
Sep 21
Last Quarter
Sep 28
New
Oct 5
First Quarter

Hourly Weather History & Observations

Time (PDT) Temp. Dew Point Humidity Pressure Visibility Wind Dir Wind Speed Gust Speed Precip Events Conditions
12:58 AM 65.7 °F 38.7 °F 37% 29.84 in 10.0 mi South 15.0 mph - N/A   Clear
1:58 AM 65.3 °F 41.9 °F 42% 29.84 in 10.0 mi SW 13.8 mph - N/A   Clear
2:58 AM 63.9 °F 41.7 °F 44% 29.86 in 10.0 mi WSW 6.9 mph - N/A   Clear
3:58 AM 60.4 °F 38.1 °F 44% 29.86 in 10.0 mi SW 5.8 mph - N/A   Clear
4:58 AM 55.6 °F 37.9 °F 52% 29.89 in 10.0 mi SSW 5.8 mph - N/A   Clear
5:58 AM 54.1 °F 37.8 °F 54% 29.93 in 10.0 mi South 5.8 mph - N/A   Clear
6:58 AM 52.9 °F 39.6 °F 61% 29.95 in 9.0 mi South 5.8 mph - N/A   Clear
7:58 AM 57.2 °F 40.8 °F 54% 29.99 in 9.0 mi SSE 6.9 mph - N/A   Clear
8:58 AM 63.3 °F 40.8 °F 44% 30.00 in 8.0 mi SE 3.5 mph - N/A   Clear
9:58 AM 69.1 °F 38.3 °F 32% 30.00 in 7.0 mi SE 4.6 mph - N/A   Clear
10:58 AM 74.7 °F 36.5 °F 25% 30.00 in 7.0 mi ESE 3.5 mph - N/A   Clear
11:58 AM 77.0 °F 35.8 °F 22% 29.99 in 7.0 mi East 3.5 mph - N/A   Clear
1:58 PM 84.2 °F 31.6 °F 15% 29.95 in 6.0 mi ENE 6.9 mph - N/A   Haze
2:43 PM 86.0 °F 26.6 °F 12% 29.92 in 7.0 mi Calm Calm - N/A   Clear
2:58 PM 86.2 °F 25.5 °F 11% 29.92 in 6.0 mi South 5.8 mph - N/A   Haze
3:58 PM 87.3 °F 26.4 °F 11% 29.91 in 7.0 mi Calm Calm - N/A   Clear
4:13 PM 87.8 °F 23.0 °F 9% 29.91 in 6.0 mi North 3.5 mph - N/A   Haze
4:58 PM 87.3 °F 24.1 °F 10% 29.91 in 6.0 mi Calm Calm - N/A   Haze
6:58 PM 84.0 °F 25.9 °F 12% 29.91 in 7.0 mi Calm Calm - N/A   Clear
8:58 PM 71.1 °F 40.5 °F 33% 29.95 in 8.0 mi NNW 4.6 mph - N/A   Clear
9:58 PM 67.3 °F 36.9 °F 33% 29.97 in 9.0 mi Calm Calm - N/A   Clear
10:58 PM 66.4 °F 37.2 °F 34% 29.98 in 9.0 mi Calm Calm - N/A   Clear